STARLINK-37100

Last updated on Sun Apr 12 2026 00:02:07 GMT+0000 (Coordinated Universal Time)

1 68230U 26053Z 26101.50002315 -.01842949 00000+0 -23274-1 0 9998 2 68230 97.2853 337.4595 0002002 78.1410 100.6551 15.62579724 5298

Satellite not in orbit

STARLINK-37100